{"data":{"norad_id":65881,"epoch":"2026-05-25T03:02:41.687232Z","epoch_age_seconds":58084,"freshness":"FRESH","line1":"1 65881U 25223AD  26145.12687138  .00026457  00000+0  79120-3 0  9991","line2":"2 65881  53.1606 298.7595 0001459  63.4156 296.6996 15.34408012 35913","mean_motion":15.34408012,"eccentricity":0.0001459,"inclination_deg":53.1606,"raan_deg":298.7595,"arg_perigee_deg":63.4156,"mean_anomaly_deg":296.6996,"bstar":0.0007912,"rev_number":3591,"period_min":93.847268049849,"perigee_km":461.68135184158,"apogee_km":463.67750207496,"semimajor_km":6840.8164269583,"source":"CELESTRAK","updated_at":"2026-05-25T13:38:20.978194Z"}}